Home   Weather   Cocoa Beach   Past weeks
Flag for USA

Past Weather in Cocoa Beach, Florida, USA — Yesterday and Last 2 Weeks

Now
62 °F

Sunny.


Feels Like: 62 °F
Forecast: 77 / 61 °F
Wind: 9 mph from West

Location: Cocoa / Patrick Air Force Base

Current Time: Apr 21, 2019 at 8:57:51 am

Latest Report: Apr 21, 2019 at 7:56 am


Visibility: 10 mi

Pressure: 30.11 "Hg

Humidity: 78%

Dew Point: 55 °F

Location of Cocoa BeachLocation

Past Weather in Cocoa Beach — Graph

°F

Cocoa Beach Temperature Yesterday

Maximum temperature yesterday: 77 °F (at 3:56 pm)
Minimum temperature yesterday: 62 °F (at 6:56 am)
Average temperature yesterday: 69 °F

High & Low Weather Summary for the Past Weeks

 TemperatureHumidityPressure
High87 °F (Apr 19, 12:56 pm)100% (Apr 6, 7:56 am)30.22 "Hg (Apr 6, 7:56 am)
Low60 °F (Apr 21, 6:56 am)27% (Apr 15, 5:56 pm)29.74 "Hg (Apr 10, 3:56 pm)
Average76 °F79%29.99 "Hg
* Reported Apr 6 7:56 am — Apr 21 7:56 am, Cocoa Beach. Weather by CustomWeather, © 2019

Note: Actual official high and low records may vary slightly from our data, if they occured in-between our weather recording intervals... More about our weather records

Advertising

Cocoa Beach Weather History for the Previous 24 Hours

Scroll right to see more
 ConditionsComfort  
Time TempWeatherWind HumidityBarometerVisibility
7:56 am
Sun, Apr 21
62 °FSunny.9 mph78%30.11 "Hg10 mi
6:56 am60 °FSunny.10 mph83%30.09 "Hg10 mi
5:56 am60 °FClear.13 mph78%30.07 "Hg10 mi
4:56 am62 °FClear.12 mph72%30.05 "Hg10 mi
3:56 am63 °FClear.10 mph68%30.04 "Hg10 mi
2:56 am64 °FPassing clouds.12 mph60%30.05 "Hg10 mi
1:56 am64 °FPassing clouds.7 mph62%30.06 "Hg10 mi
12:56 am64 °FPassing clouds.8 mph56%30.07 "Hg10 mi
11:56 pm
Sat, Apr 20
66 °FPassing clouds.8 mph49%30.07 "Hg10 mi
10:56 pm64 °FClear.8 mph53%30.05 "Hg10 mi
9:56 pm66 °FClear.12 mph45%30.04 "Hg10 mi
8:56 pm67 °FClear.13 mph41%30.01 "Hg10 mi
7:56 pm69 °FClear.15 mph35%29.98 "Hg10 mi
6:56 pm72 °FSunny.20 mph33%29.96 "Hg10 mi
5:56 pm75 °FSunny.20 mph33%29.94 "Hg10 mi
4:56 pm76 °FSunny.21 mph37%29.93 "Hg10 mi
3:56 pm77 °FSunny.21 mph35%29.93 "Hg10 mi
3:26 pm75 °FPassing clouds.18 mph39%29.95 "Hg10 mi
2:56 pm76 °FPassing clouds.18 mph39%29.96 "Hg10 mi
1:56 pm76 °FPassing clouds.24 mph41%29.96 "Hg10 mi
12:56 pm77 °FScattered clouds.25 mph43%29.97 "Hg10 mi
11:56 am75 °FSunny.22 mph46%29.98 "Hg10 mi
10:56 am73 °FSunny.20 mph55%29.97 "Hg10 mi
9:56 am70 °FSunny.13 mph63%29.97 "Hg10 mi
Weather by CustomWeather, © 2019

See weather overview